Showing default

ALISIO-1, 58562

Orbit data source: Space-Track

ALISIO-1, 58562 is a payload satellite owned by IAC (ES) in SSO that was launched on Fri, 01 Dec 2023 UTC via an FALCON 9 launch vehicle from the Air Force Western Test Range (AFWTR). Payload-class satellites include a variety of spacecraft equipped with specific instruments for various scientific and technological missions. These include communications satellites like Starlink; space stations such as the ISS; scientific satellites like the Hubble; Earth observation satellites from companies like Planet Labs, Umbra, and HawkEye 360; GPS; miniature CubeSats for education and research; and military/defense satellites.

Loading next visibility...
Identifier
58562, 2023-185M
Orbit
SSO
Last TLE update
13 hours ago
Origin
Manufacturer
IAC
Mission
Operational Amateur Imaging
Bus & Motor
CUBESAT 6U, Unknown motor
Mass
10 kg wet, 10 kg dry
Launch date (UTC)
2023-12-01 (2 years ago)
Launch vehicle
FALCON 9
Launch site
Air Force Western Test Range (AFWTR)
Object type
Payload
Rocket body
Debris
Shape & HBR
Box, 0.3 m
Radar Cross Section
0.080 m², Medium (>0.1 m² and < 1m²)

Expand to show TLE details & history

TLE from 13 hours ago
0 ALISIO-1
1 58562U 23185M   25191.57990252  .00001693  00000-0  98888-4 0  9996
2 58562  97.5770 261.9055 0008036  66.2511 293.9562 15.13255009 86820
Epoch: 2025-07-10T13:55Z
TLE epoch observation values (Epoch: 2025-07-10T13:55:03.577Z)
Latitude
-0.00005°
Longitude
124.39645°
Altitude
527.108 km
Speed
7.601 km/s
True Right ascension
17h 27m 37s
True Declination
0° 00' 00"
Sunlit
Object was in full shadow at epoch
Visualization orbit readout
Latitude
-6.01896°
Longitude
125.72027°
Altitude
528.46 km
Speed
7.599 km/s
Apparent Right ascension
20h 34m 12s
Apparent Declination
-47° 05' 12"
Sunlit
Object is in full shadow
Visualization observer readout
Local Sidereal Time
14:51:48
Azimuth
131.244° SE
Elevation
-25.461°
Doppler factor
1
Orbital elements
Apogee altitude
528.809 km
Perigee altitude
517.718 km
Semi-major axis
6,901.401 km
Eccentricity
0.0008
Inclination
97.577°
RAAN
261.9055°
Arg. of periapsis
66.2511°
True anomaly
Unknown
Mean anomaly
293.9562°
Eccentric anomaly
Unknown
Mean motion
3.78562 °/min
Orbital period
95.1 mins
BSTAR
0.000098888
Loading maneuver chart data...
Loading SW <> Apogee altitude chart data...
Loading historical data...
Loading historical data...
Loading historical data...
Loading historical data...
Loading historical data...
Loading historical data...
Loading historical data...

ALISIO-1 Visibility forecast

Observer location: undefined°, undefined°

Span
Click to sort rows by Start time (UTC) header in descending order
Start Az.
Max El. time (UTC)
Max El. Az.
Max El.
End time (UTC)
End Az.
6 mins2025-07-11 04:20:13.106Z139.504° SSE2025-07-11 04:23:13.106Z61.925° ENE33.402°2025-07-11 04:26:13.106Z3.991° NNE
6 mins2025-07-11 17:28:13.106Z19.858° NNE2025-07-11 17:31:13.106Z152.62° SSE41.192°2025-07-11 17:34:13.106Z185.661° SSW
|